Showing default

FOSSASAT2E18 (TAT-A), 62686

Orbit data source: Space-Track

FOSSASAT2E18 (TAT-A), 62686 is a payload satellite owned by Fossa Systems (ES) in SSO that was launched on Tue, 14 Jan 2025 UTC via an FALCON 9 launch vehicle from the Air Force Western Test Range (AFWTR). Payload-class satellites include a variety of spacecraft equipped with specific instruments for various scientific and technological missions. These include communications satellites like Starlink; space stations such as the ISS; scientific satellites like the Hubble; Earth observation satellites from companies like Planet Labs, Umbra, and HawkEye 360; GPS; miniature CubeSats for education and research; and military/defense satellites.

Loading next visibility...
Identifier
62686, 2025-009CF
Orbit
SSO
Country
Flag of ESES / SPN
Related business
Manufacturer
Fossa Systems
Mission
Operational Commercial Communications
Bus & Motor
CUBESAT 3U, Unknown motor
Mass
4 kg wet, 4 kg dry
Launch date (UTC)
2025-01-14 (1 year ago)
Launch vehicle
FALCON 9
Launch site
Air Force Western Test Range (AFWTR)
Object type
Payload
Rocket body
Debris
Shape & HBR
Box + 2 Pan, 0.4 m
Radar Cross Section
0.035 m², Medium (>0.1 m² and < 1m²)

Expand to show TLE details & history
Last TLE update: 1 day ago

TLE from 1 day ago
0 FOSSASAT2E18 (TAT-A)
1 62686U 25009CF  26170.76230617  .00002128  00000-0  98903-4 0  9998
2 62686  97.3971 249.0556 0005207 343.2016  16.9046 15.21053108 79086
Epoch: 2026-06-19T18:17Z
TLE epoch observation values (Epoch: 2026-06-19T18:17:43.253Z)
Latitude
-0.00004°
Longitude
66.63876°
Altitude
502.326 km
Speed
7.615 km/s
True Right ascension
16h 36m 13s
True Declination
0° 00' 00"
Sunlit
Object was in full shadow at epoch
Visualization orbit readout
Latitude
Unknown
Longitude
Unknown
Altitude
Unknown
Speed
Unknown
Apparent Right ascension
Unknown
Apparent Declination
Unknown
Sunlit
N/A
Visualization observer readout
Local Sidereal Time
07:21:57
Azimuth
Unknown
Elevation
Unknown
Doppler factor
Unknown
Orbital elements
Apogee altitude
503.208 km
Perigee altitude
496.046 km
Semi-major axis
6,877.764 km
Eccentricity
0.00052
Inclination
97.3971°
RAAN
249.0556°
Arg. of periapsis
343.2016°
True anomaly
16.92196°
Mean anomaly
16.9046°
Eccentric anomaly
16.91328°
Mean motion
3.80515 °/min
Orbital period
94.61 mins
BSTAR
0.000098903
Loading maneuver chart data...
Computing Atmospheric mass density...
Loading historical data...
Loading historical data...
Loading historical data...
Loading historical data...
Loading historical data...
Loading historical data...
Loading historical data...

Documentation

Showing up to 5 results
|